Terminal Aerodrome Forecast
Issued by NWS Blacksburg, VA

Home | Current Version | Previous Version | Text Only | Print | Product List | Glossary On
Versions: 1 2 3 4 5 6 7 8 9 10 11 12 13 14 15 16 17 18 19 20 21 22 23 24 25 26 27 28 29 30 31 32 33 34 35
000
FTUS41 KRNK 022326
TAFBLF
TAF
KBLF 022326Z 0300/0324 26004KT P6SM VCTS BKN040CB
      TEMPO 0300/0302 2SM TSRA BR SCT007 OVC025CB
     FM030200 27005KT 4SM SHRA BR VCTS BKN035CB OVC080
     FM030600 27006KT P6SM VCSH OVC015
      TEMPO 0309/0312 4SM BR
     FM031300 27005KT 5SM BR SCT010 BKN080
     FM031800 29008KT P6SM BKN045=

USA.gov is the U.S. government's official web portal to all federal, state and local government web resources and services.